Вернуться в каталог

TIANHUI 2-02B

АктивенНаукаSSO
NORAD 49072·PAYLOAD·🇨🇳 China

Запущен Aug 18, 2021 с Taiyuan Satellite Launch Center

Loading…

Ближайшие Пролёты (ближайшие 24 часа)

TLE

СвежийSource: Space-Track

Эпоха: Sep 14, 2026, 10:57 UTC

1 49072U 21074B   26257.45658562  .00001274  00000-0  68360-4 0  9990
2 49072  97.4859 259.5235 0001983  93.0132 267.1328 15.16753537280806

Отслеживайте TIANHUI 2-02B в реальном времени с AllMySat

Download on the App Store